GEFSNE_500_meanwind_144.txt.gz
Wind_Speed
19 18 18 17 17 17 17 16 16 16 16 17 17 17 18 18 19 19 19 20 20 21 21 21 22 22 23 23 23 24 24 24 24 25 25 25 25 26
21 21 20 19 19 19 19 18 18 19 19 19 20 20 20 21 22 22 22 23 23 23 23 24 25 25 26 26 26 27 27 27 28 28 29 29 29 29
22 22 22 22 22 21 21 20 20 21 21 22 23 23 23 24 24 25 25 26 26 26 27 27 27 28 29 29 30 30 30 31 31 31 32 32 32 33
23 23 23 24 24 23 23 23 23 23 24 25 25 26 26 27 28 28 29 29 29 30 30 30 30 31 32 32 33 33 34 34 35 35 35 35 36 36
24 24 25 25 25 26 26 25 26 27 27 28 29 29 30 30 31 31 32 32 32 33 33 33 33 34 35 35 36 36 37 38 38 39 39 39 39 40
25 26 26 26 26 27 27 27 28 29 29 30 31 32 32 32 33 33 33 34 35 35 36 36 36 37 38 39 39 40 41 42 42 42 42 43 43 44
25 25 25 26 27 27 28 29 30 31 32 33 33 34 34 35 36 36 36 36 37 37 38 39 40 40 41 42 43 44 45 45 45 45 46 46 47 47
27 26 26 28 29 29 29 31 32 33 34 34 34 36 36 37 37 38 38 38 39 40 42 42 44 44 45 45 46 46 47 48 48 49 49 50 50 51
26 27 28 29 30 32 32 33 33 34 35 36 37 37 37 38 39 39 40 41 41 42 44 44 45 46 47 48 49 49 50 50 51 51 52 52 53 54
28 28 29 31 32 33 34 34 34 35 36 37 38 39 40 40 41 42 43 43 44 45 47 47 47 48 49 50 51 52 53 53 54 54 55 56 57 57
29 31 31 32 33 34 35 35 36 37 39 40 41 42 43 43 44 45 46 46 47 48 50 50 51 52 52 53 55 56 57 57 58 59 60 60 61 60
30 31 32 33 34 35 36 38 38 40 41 42 43 44 45 46 47 48 49 50 51 51 53 54 55 56 56 56 57 58 59 61 61 62 61 61 61 61
30 32 33 34 35 36 37 39 41 42 43 44 45 47 48 48 49 50 51 52 54 55 56 57 58 58 59 59 58 59 60 61 61 61 61 61 60 60
32 34 35 37 38 39 40 41 42 43 44 45 46 47 48 49 51 52 54 55 57 58 59 59 59 60 60 61 61 61 61 61 61 60 60 60 60 60
33 35 37 38 40 40 41 42 44 45 45 46 47 48 49 51 52 54 56 57 58 60 61 61 62 62 62 63 62 62 61 61 60 59 58 57 57 57
35 37 37 38 40 42 43 44 45 46 47 48 49 51 52 53 55 57 58 59 60 60 62 63 63 63 63 62 63 62 61 59 57 56 55 53 52 52
36 38 39 40 42 43 45 46 47 48 50 51 52 54 55 56 57 58 58 60 61 61 61 62 62 62 61 61 60 59 58 56 54 53 51 50 49 49
38 39 41 42 43 44 46 47 48 50 51 53 54 55 56 56 57 57 58 58 59 59 58 58 57 57 56 55 54 53 52 50 49 48 47 45 44 44
37 39 41 42 44 45 47 48 50 51 53 54 55 55 55 55 55 55 55 55 54 54 53 52 51 50 49 47 47 47 47 45 44 44 43 41 40 39
39 41 43 44 46 48 50 51 51 52 52 53 54 54 54 53 53 52 51 50 49 48 47 46 45 44 43 42 40 40 41 41 39 38 38 37 36 36
41 42 44 45 47 48 49 50 51 51 51 51 51 50 50 49 48 47 46 45 44 43 41 40 40 39 38 37 35 34 34 34 33 32 32 32 32 32
43 44 45 46 47 48 49 49 49 49 49 48 48 47 46 45 44 43 42 40 38 37 36 36 36 35 34 33 31 30 29 29 28 28 28 27 27 26
43 44 45 46 47 48 48 48 47 47 46 45 44 42 41 41 40 39 38 36 35 35 34 34 33 32 32 31 29 28 27 27 26 26 27 26 26 24

GEFSNE_500_meanwind_150.txt.gz
Wind_Speed
21 20 20 20 20 20 19 19 18 18 18 18 18 19 19 20 20 21 21 21 21 21 22 22 22 23 23 24 24 24 24 25 25 25 26 26 26 26
22 22 22 22 21 21 21 21 22 22 21 21 21 22 22 23 23 23 23 24 24 24 25 25 25 26 26 26 27 27 27 27 28 28 28 29 29 30
23 23 23 24 23 23 23 24 24 24 25 24 24 24 25 25 25 26 26 27 27 28 28 28 28 28 29 29 29 30 30 31 31 31 32 32 33 33
24 24 24 26 26 25 26 26 26 26 26 26 26 27 27 27 28 28 29 30 31 31 31 32 32 32 32 33 33 33 33 34 34 34 35 36 36 37
25 25 26 26 26 27 27 27 28 29 28 28 28 29 29 29 30 31 32 32 33 34 34 35 35 35 35 36 36 36 37 37 38 39 39 39 40 40
25 26 26 27 28 27 27 28 29 29 30 30 30 31 31 32 33 33 34 35 35 36 36 37 38 38 38 39 39 39 40 41 41 42 42 42 43 43
26 26 26 27 28 28 29 30 30 32 32 32 32 33 33 34 35 36 37 37 37 39 39 40 41 41 41 42 42 43 43 44 44 45 45 45 46 46
27 27 28 28 29 30 30 31 32 32 32 33 34 34 34 36 37 37 38 39 40 41 42 42 43 44 44 45 45 46 47 48 49 49 49 49 49 49
26 27 27 28 29 30 30 31 33 34 35 35 35 36 38 39 39 39 40 41 42 43 44 44 45 45 46 47 47 48 49 50 51 52 52 53 53 54
26 27 27 28 29 31 32 33 34 35 36 36 37 38 39 40 41 42 43 44 45 46 46 46 47 48 49 50 51 52 52 53 53 54 55 56 57 57
26 27 29 30 30 31 32 33 35 36 36 37 39 40 41 42 43 45 46 47 47 48 49 50 51 51 52 53 54 55 55 56 57 58 58 59 59 60
26 28 30 31 32 32 34 35 36 36 38 39 41 42 43 45 46 47 48 49 50 51 52 53 54 54 55 55 56 58 59 60 60 61 61 61 61 61
27 29 30 31 32 33 34 35 36 38 40 41 42 44 45 46 48 49 50 51 53 54 55 56 56 56 57 57 58 59 60 61 62 62 62 61 60 60
28 28 29 30 32 34 35 36 38 40 41 42 43 45 47 49 50 51 53 54 55 56 57 57 58 58 59 60 60 60 60 60 60 59 57 56 56 56
29 29 31 32 34 37 38 39 40 41 42 44 45 47 49 51 53 53 54 55 56 56 57 57 58 59 59 60 60 59 58 56 56 55 54 52 53 53
31 32 34 36 37 38 39 39 40 42 43 45 47 48 50 50 51 52 53 54 55 55 56 56 57 57 57 56 54 53 53 52 51 51 50 49 49 49
34 34 35 37 38 39 39 40 41 42 44 46 47 48 49 50 51 52 52 52 53 53 53 53 52 51 50 50 49 50 49 48 48 47 47 48 48 47
34 34 35 36 37 38 39 40 42 43 45 47 48 48 49 50 50 50 50 50 50 50 49 48 48 47 46 46 46 46 45 45 45 45 45 44 43 42
34 35 35 36 37 39 40 41 42 43 45 46 46 47 48 49 49 49 48 48 47 47 47 45 44 44 43 43 43 43 43 42 42 41 40 39 38 37
34 35 36 37 38 39 40 41 42 43 44 45 46 47 47 47 47 46 46 45 45 44 43 42 41 40 40 40 40 40 39 39 38 36 35 34 33 32
34 35 36 37 38 39 40 42 43 43 44 45 45 45 45 45 44 43 43 42 41 40 39 38 38 37 37 36 36 35 35 34 33 32 31 31 30 29
35 36 37 38 39 40 41 42 43 43 44 44 44 44 44 43 42 41 40 38 37 36 36 35 34 33 33 33 32 31 30 30 29 29 29 29 28 27
36 37 38 39 39 40 40 41 41 42 42 42 41 41 40 39 38 37 36 35 34 33 32 31 30 29 29 28 28 27 27 27 27 27 26 25 25 24

GEFSNE_500_meanwind_156.txt.gz
Wind_Speed
21 21 21 21 20 20 20 20 19 19 19 19 19 19 19 19 19 19 19 20 20 20 21 22 22 23 23 23 23 23 23 24 24 24 25 25 25 25
21 21 20 21 22 22 22 22 22 22 21 21 21 22 22 21 22 22 22 23 24 24 24 24 25 25 26 26 27 27 27 27 27 27 28 28 29 29
21 21 22 22 23 24 24 24 24 24 24 24 24 23 24 24 24 24 24 26 26 27 27 27 27 28 28 29 30 30 30 30 31 31 32 32 32 33
22 22 23 24 24 25 25 26 26 26 26 26 25 25 25 26 26 27 26 27 27 28 29 30 30 31 31 31 32 32 32 33 33 34 34 35 35 35
23 23 24 24 25 25 26 27 27 27 27 27 27 27 27 27 28 29 29 29 29 29 30 31 31 32 32 33 33 34 35 35 36 37 38 38 38 39
23 24 24 24 25 26 26 26 27 28 28 28 28 29 29 30 30 31 30 31 32 32 31 32 32 33 34 35 36 37 38 39 40 40 41 41 42 43
23 24 24 25 26 27 27 28 29 29 30 30 30 31 32 33 33 33 32 33 33 34 35 35 36 36 37 38 39 40 41 42 42 43 43 43 44 45
24 25 26 27 28 29 29 30 30 31 32 32 33 33 34 34 34 34 35 35 36 37 38 38 39 39 40 41 41 41 42 43 44 44 45 46 46 47
25 26 26 27 28 28 28 30 31 31 31 32 33 34 34 34 35 36 36 37 38 38 39 39 41 41 42 43 43 44 45 45 45 47 47 48 48 49
26 27 27 28 28 28 28 29 29 30 32 33 34 35 35 36 37 37 37 38 39 41 42 42 43 44 45 46 46 47 47 48 49 49 50 51 52 53
26 27 28 28 28 29 29 29 30 31 32 33 34 35 36 37 38 38 39 41 42 43 44 45 46 46 48 49 49 50 51 51 52 53 54 54 55 56
26 27 28 29 29 30 30 30 30 31 33 34 35 36 36 37 38 40 41 42 44 44 45 47 48 50 50 51 52 53 53 54 55 55 55 55 55 55
26 27 28 29 30 30 31 32 32 33 34 35 35 36 37 38 40 41 43 45 46 48 49 50 52 53 54 53 53 54 54 54 55 55 55 54 53 53
27 28 28 29 30 31 32 33 34 34 35 36 37 38 39 40 42 43 44 46 47 48 49 51 52 52 53 53 52 53 53 53 53 53 52 51 51 51
27 28 30 30 30 31 32 33 34 35 36 37 38 38 40 41 42 43 44 46 47 48 49 50 50 51 51 51 51 51 50 50 50 49 49 49 49 49
28 29 30 31 33 34 34 35 35 36 37 38 39 39 41 42 44 45 45 46 47 48 49 49 50 49 49 49 49 48 47 46 46 46 46 47 47 46
29 30 31 32 33 34 35 35 36 36 37 38 39 41 42 42 43 44 44 45 45 45 45 45 45 45 44 44 43 43 43 43 43 43 43 43 43 43
31 31 32 33 34 35 35 35 36 36 37 39 40 41 41 42 43 43 44 44 44 44 43 42 42 41 41 41 42 41 40 39 39 39 39 39 38 38
31 32 32 33 34 34 34 34 35 36 37 38 39 40 41 42 42 42 42 42 41 42 41 41 40 40 39 39 39 39 39 38 37 37 36 36 35 35
31 32 32 32 33 34 34 35 36 36 37 39 40 40 40 40 40 40 40 39 39 40 39 39 39 39 38 37 37 36 36 36 35 34 34 34 33 33
31 32 32 33 34 35 35 36 37 37 38 39 39 39 39 38 38 38 38 38 38 38 38 37 37 36 36 35 34 33 32 32 31 32 32 31 31 30
31 32 32 33 34 35 35 36 36 37 38 38 38 38 38 37 36 36 36 36 36 36 35 35 34 33 33 31 30 30 29 29 29 29 29 28 27 26
31 31 32 33 33 34 34 35 36 36 37 37 37 36 36 35 35 34 34 34 34 33 33 32 31 30 29 29 28 27 27 27 26 26 26 26 25 24

GEFSNE_500_meanwind_162.txt.gz
Wind_Speed
19 19 20 20 20 20 20 20 20 20 20 20 20 21 21 21 21 22 22 23 23 23 23 24 24 24 24 24 24 24 25 25 26 27 27 27 27 28
21 21 21 21 21 21 21 21 21 21 21 21 22 22 23 23 23 24 24 24 25 25 25 26 26 27 27 27 27 27 28 29 29 30 30 30 30 31
21 21 21 22 22 23 23 23 23 24 24 24 24 24 25 25 26 26 26 26 25 26 27 27 28 28 29 29 29 30 31 31 32 32 32 33 34 34
21 22 22 23 23 23 23 24 24 25 25 25 25 26 26 27 28 28 28 28 28 27 28 28 29 29 30 30 31 32 33 33 33 34 34 35 36 37
22 22 22 22 23 23 24 25 25 25 26 27 28 29 29 29 30 30 30 30 31 31 32 32 32 33 33 33 33 34 35 35 36 36 38 39 39 40
22 23 23 23 23 24 25 26 27 27 28 29 30 31 31 31 32 33 33 33 33 34 34 35 35 36 36 36 36 37 38 38 39 40 40 41 42 43
21 22 23 23 24 24 26 27 28 29 29 30 31 32 32 32 32 34 34 35 34 34 35 35 36 37 38 38 38 39 40 41 41 42 43 43 44 45
20 21 21 23 24 25 26 28 28 28 29 30 31 32 32 32 32 33 34 34 35 36 37 37 38 39 40 40 40 42 42 43 44 45 46 46 46 47
21 22 23 23 24 25 26 27 27 27 29 30 31 31 32 31 32 34 35 36 37 38 39 39 41 41 42 43 44 44 45 46 47 47 48 49 49 50
21 22 23 24 25 25 26 26 27 28 29 31 31 31 31 33 34 35 36 37 37 38 39 40 41 43 44 45 46 46 47 48 49 50 51 52 53 53
21 22 24 24 25 26 27 28 28 28 29 30 31 33 34 35 35 35 36 37 38 40 41 42 43 44 45 46 48 48 49 50 51 52 53 54 54 55
21 22 24 25 26 27 27 28 28 29 30 31 33 34 34 34 35 35 36 37 38 40 41 43 44 45 45 46 48 50 51 51 52 52 53 54 55 55
22 23 24 25 26 27 28 28 29 30 31 32 32 33 34 34 35 36 37 38 39 41 42 43 45 46 46 47 47 49 50 50 51 52 52 53 53 53
22 22 23 24 25 26 27 28 30 30 31 31 32 32 33 34 35 36 37 38 40 41 42 43 44 45 46 46 47 48 49 49 50 50 50 50 51 51
21 23 24 25 26 27 28 29 30 30 30 31 32 32 33 34 35 36 37 39 40 41 43 43 44 45 45 46 46 46 47 47 47 47 46 47 48 48
22 24 25 25 26 27 28 29 30 31 31 32 33 34 35 36 37 38 40 41 42 42 43 44 44 45 44 44 44 44 44 43 44 44 44 44 44 44
24 25 25 26 27 28 29 30 31 32 32 33 34 36 37 37 38 40 40 40 40 41 41 41 42 42 42 42 42 42 41 41 42 42 41 41 40 41
25 25 27 27 28 29 30 31 32 33 34 35 36 36 37 37 38 39 39 40 40 40 40 40 40 40 40 40 40 40 40 40 39 39 39 38 38 39
25 27 28 29 30 30 31 32 33 33 34 35 36 36 36 37 38 39 39 39 39 39 39 39 39 39 39 39 39 39 38 38 37 37 37 37 37 37
27 29 29 30 30 31 31 32 33 33 34 35 35 36 37 38 38 38 38 38 38 38 38 38 38 37 37 37 37 37 37 36 36 36 35 35 35 34
29 30 30 31 31 32 32 33 33 34 35 35 36 37 37 38 38 37 36 36 36 36 36 36 36 35 35 35 35 34 34 34 34 33 32 31 31 30
30 31 31 32 32 32 32 33 33 34 35 35 36 36 37 36 35 35 34 34 34 34 34 34 34 34 33 33 33 32 32 31 31 30 29 28 27 26
30 31 31 31 32 32 32 33 33 33 34 34 34 34 35 34 33 33 33 33 33 33 32 32 32 32 32 31 31 30 30 29 28 28 27 26 26 25

GEFSNE_500_meanwind_168.txt.gz
Wind_Speed
22 22 22 23 23 23 22 22 23 23 23 23 22 22 23 22 23 23 24 24 25 26 26 26 26 27 27 27 28 28 29 30 30 31 30 31 31 31
22 23 23 23 23 23 24 23 23 24 24 25 25 24 25 25 25 26 27 27 27 28 29 29 29 30 30 30 30 30 31 31 32 32 33 34 34 35
22 23 24 23 23 24 24 24 25 25 25 26 27 27 28 28 28 29 29 29 29 30 31 32 32 33 33 33 33 33 34 34 35 35 36 36 36 37
22 22 23 24 24 24 24 25 26 26 26 27 27 28 29 30 30 30 30 31 31 32 32 33 34 34 35 35 36 36 36 37 38 38 38 38 39 38
22 22 23 23 23 24 24 26 26 27 27 28 28 29 29 29 30 32 32 32 33 34 35 36 36 37 38 39 39 39 39 39 40 40 40 40 41 41
21 22 22 23 24 24 26 27 28 29 29 29 29 30 30 30 32 33 33 34 35 36 36 37 38 39 40 41 41 41 41 42 42 43 43 43 43 43
20 21 23 23 24 25 26 27 29 29 29 29 29 30 31 32 33 34 34 34 35 36 37 38 39 40 41 42 43 42 42 43 44 45 45 46 46 46
19 21 22 23 24 26 27 28 29 29 29 29 29 30 32 33 33 33 34 34 36 37 38 39 40 41 42 42 42 43 44 45 45 46 47 48 49 49
19 21 23 24 25 26 26 27 28 28 29 30 31 31 33 34 35 35 35 35 36 38 39 39 40 41 41 41 42 43 43 45 46 47 49 49 48 49
19 21 22 23 25 25 26 27 28 29 30 31 31 32 34 35 35 36 36 37 38 38 38 38 38 38 39 39 40 42 43 44 45 47 48 48 49 50
21 21 22 23 24 26 27 28 29 30 31 31 33 34 35 34 34 34 36 37 37 37 37 38 38 38 40 41 41 42 43 44 45 45 46 47 48 49
20 21 22 23 23 25 26 27 29 31 31 32 33 33 34 34 34 34 35 36 37 37 38 38 39 40 41 41 42 43 44 45 46 46 47 48 49 49
21 22 23 24 25 25 27 28 29 30 31 32 33 33 34 34 35 35 36 36 36 37 38 40 40 41 42 42 43 44 45 46 46 47 47 48 48 49
22 23 24 24 25 25 27 28 29 30 31 32 32 33 33 34 34 35 35 36 37 38 40 40 41 42 42 43 43 44 44 45 45 46 46 47 47 47
24 24 25 25 26 27 28 29 30 31 32 32 32 33 33 34 35 36 37 38 39 40 40 41 42 42 42 42 43 43 43 44 44 45 45 45 45 46
25 26 26 27 28 28 29 29 30 31 31 32 33 34 34 35 36 37 38 39 39 40 41 41 41 42 42 42 42 42 42 42 43 44 44 44 44 44
26 27 28 28 29 29 30 31 32 32 33 33 34 35 36 37 38 39 39 39 40 41 41 41 41 41 41 41 41 42 42 42 42 42 42 42 42 42
28 29 29 29 30 31 31 32 33 34 35 36 37 37 38 39 40 40 41 41 41 42 42 42 42 42 41 41 41 41 41 41 41 40 40 40 40 40
29 29 30 31 31 32 33 34 35 35 36 37 38 39 39 40 40 41 41 41 41 41 41 40 40 39 39 39 39 39 39 39 39 39 38 37 37 37
30 30 31 32 33 34 35 36 36 37 38 38 39 39 39 39 39 40 40 40 39 39 38 38 37 37 36 36 36 36 37 36 36 36 35 34 33 33
31 32 33 33 34 35 36 36 37 37 37 37 37 37 37 37 38 38 38 37 36 36 36 35 35 35 34 34 34 34 34 33 33 32 31 30 30 30
32 32 33 33 34 35 35 36 36 36 35 35 36 36 36 36 36 36 35 35 34 34 34 33 33 33 32 32 31 31 31 31 30 30 29 28 27 26
32 32 33 34 34 35 35 35 35 35 35 35 35 34 34 34 34 34 33 33 32 32 32 31 31 31 30 30 30 29 29 28 28 28 27 27 25 24